Regional Weather Roundup
Issued by NWS Albany, NY

Home | Current Version | Previous Version | Text Only | Print | Product List | Glossary On
Versions: 1 2 3 4 5 6 7 8 9 10 11 12 13 14 15 16 17 18 19 20 21 22 23 24 25 26 27 28 29 30 31 32 33 34 35 36 37 38 39 40 41 42 43 44 45 46 47 48 49 50
000
ASUS41 KALY 210210
RWRALY

NEW YORK STATE HOURLY WEATHER ROUNDUP
NATIONAL WEATHER SERVICE ALBANY NY
900 PM EST THU NOV 20 2014

NOTE: "FAIR" INDICATES FEW OR NO CLOUDS BELOW 12,000 FEET WITH NO
SIGNIFICANT WEATHER AND/OR NO OBSTRUCTIONS TO VISIBILITY.

NYZ032-033-038>043-046>054-057>066-NYZ062>081-210300-
EAST


CITY           SKY/WX    TMP DP  RH WIND       PRES   REMARKS
ALBANY         PTCLDY    22  15  75 SW3       29.94R
GLENS FALLS    CLEAR     27  13  55 SW8G16    29.89S WCI  19
POUGHKEEPSIE   CLEAR     33  11  39 W9        29.95R WCI  25
NEWBURGH       CLEAR     30  14  51 W12       29.95R WCI  21
MONTGOMERY     CLEAR     31   9  39 W8        29.94R WCI  23
WHITE PLAINS   CLEAR     34  10  37 NW20G25   29.93R WCI  23
ISLIP          PTCLDY    38  11  32 W15G23    29.92R WCI  29
NEW YORK CITY  PTCLDY    37  15  40 NW17G23   29.96R WCI  27
CENTRAL PARK   CLEAR     37   9  31 VRB6G20   29.98R WCI  32
$$

NYZ005>009-017-018-044>046-055-056-210300-
CENTRAL


CITY           SKY/WX    TMP DP  RH WIND       PRES   REMARKS
FULTON         MOCLDY    26  16  65 SW13      29.92R WCI  15
SYRACUSE       CLOUDY    27  17  66 SW17G26   29.94R WCI  14
ROME           PTCLDY    24  17  74 W9        29.93R WCI  14
ELMIRA         MOCLDY    25   9  50 W10       29.96R WCI  15
BINGHAMTON     MOCLDY    22   6  50 W17G25    29.89R WCI   8
MONTICELLO     CLEAR     25   9  50 W8        29.91R WCI  16
$$

NYZ026>034-041>043-210300-
NORTH


CITY           SKY/WX    TMP DP  RH WIND       PRES   REMARKS
WATERTOWN      FAIR      28   8  43 W18G35    29.87R WCI  15
FORT DRUM      NOT AVBL
MASSENA        CLEAR     24  11  57 SW13      29.82R WCI  12
SARANAC LAKE   CLEAR     19  12  74 SW9G18    29.74R WCI   8
PLATTSBURGH    CLEAR     25  13  60 VRB3      29.83R
$$

NYZ001>004-010>016-019>021-210300-
WEST


CITY           SKY/WX    TMP DP  RH WIND       PRES   REMARKS
NIAGARA FALLS  MOCLDY    20  13  74 W17       29.95R WCI   5
BUFFALO        CLOUDY    21  13  71 W12       29.96R WCI   9
DUNKIRK        CLOUDY    26  12  55 W20G28    29.98R WCI  12
JAMESTOWN      CLOUDY    18  16  93 W13G20    29.93R VSB 1/2 WCI   4
WELLSVILLE     LGT SNOW  19  10  68 W18G29    29.88R WCI   4
ROCHESTER      CLOUDY    24  15  68 SW13      29.95R WCI  12
PENN YAN       LGT SNOW  23  18  81 SW7       29.95R WCI  15
$$

             KEY
       WCI = WIND CHILL INDEX
       VSB = VISIBILITY
       HX  = HEAT INDEX
$$


USA.gov is the U.S. government's official web portal to all federal, state and local government web resources and services.